• In Moldova, Republic
  • List of Countries
  • For 7 days
  • Water Temperature
  • Satellite Maps
  • Weather Map
  • Weather Widgets
  • user-avatar
    Login

    Hourly Weather Debow

    Today, 23 January, Wednesday

    Time Temperature Precipitation Wind Pressure Humidity
    00:00 -8°C° 0 mm 3 mps 745 mmHg 84%
    01:00 -8°C° 0 mm 3 mps 745 mmHg 84%
    02:00 -8°C° 0 mm 3 mps 744 mmHg 84%
    03:00 -8°C° 0 mm 3 mps 744 mmHg 85%
    04:00 -8°C° 0 mm 3 mps 744 mmHg 85%
    05:00 -10°C° 0 mm 4 mps 743 mmHg 86%
    06:00 -10°C° 0 mm 4 mps 743 mmHg 86%
    07:00 -10°C° 0 mm 4 mps 743 mmHg 86%
    08:00 -10°C° 0 mm 4 mps 742 mmHg 87%
    09:00 -10°C° 0 mm 4 mps 742 mmHg 86%
    10:00 -10°C° 0 mm 4 mps 742 mmHg 85%
    11:00 -10°C° 0 mm 4 mps 742 mmHg 84%
    12:00 -9°C° 0 mm 4 mps 742 mmHg 83%
    13:00 -9°C° 0 mm 4 mps 742 mmHg 81%
    14:00 -9°C° 0 mm 4 mps 741 mmHg 80%
    15:00 -9°C° 0 mm 4 mps 741 mmHg 80%
    16:00 -9°C° 0 mm 4 mps 741 mmHg 80%
    17:00 -9°C° 0 mm 4 mps 741 mmHg 80%
    18:00 -9°C° 0 mm 4 mps 741 mmHg 81%
    19:00 -9°C° 0 mm 4 mps 741 mmHg 83%
    20:00 -9°C° 0 mm 4 mps 742 mmHg 84%
    21:00 -9°C° 0 mm 4 mps 742 mmHg 85%
    22:00 -9°C° 0 mm 4 mps 742 mmHg 86%
    23:00 -9°C° 0 mm 4 mps 742 mmHg 87%

    Tomorrow, 24 January, Thursday

    Time Temperature Precipitation Wind Pressure Humidity
    00:00 -9°C° 0 mm 4 mps 742 mmHg 86%
    01:00 -9°C° 0 mm 4 mps 742 mmHg 85%
    02:00 -9°C° 0 mm 4 mps 742 mmHg 83%
    03:00 -9°C° 0 mm 4 mps 742 mmHg 84%
    04:00 -9°C° 0 mm 4 mps 742 mmHg 86%
    05:00 -10°C° 0 mm 4 mps 742 mmHg 87%
    06:00 -10°C° 0 mm 4 mps 743 mmHg 87%
    07:00 -10°C° 0 mm 4 mps 743 mmHg 87%
    08:00 -10°C° 0 mm 4 mps 743 mmHg 88%
    09:00 -9°C° 0 mm 4 mps 743 mmHg 86%
    10:00 -9°C° 0 mm 4 mps 744 mmHg 83%
    11:00 -10°C° 0 mm 5 mps 744 mmHg 81%
    12:00 -8°C° 0 mm 5 mps 744 mmHg 80%
    13:00 -8°C° 0 mm 5 mps 744 mmHg 79%
    14:00 -8°C° 0 mm 5 mps 744 mmHg 78%
    15:00 -8°C° 0 mm 5 mps 744 mmHg 79%
    16:00 -8°C° 0 mm 5 mps 744 mmHg 79%
    17:00 -8°C° 0 mm 5 mps 744 mmHg 80%
    18:00 -10°C° 0 mm 5 mps 744 mmHg 80%
    19:00 -10°C° 0 mm 6 mps 744 mmHg 80%
    20:00 -10°C° 0 mm 6 mps 744 mmHg 80%
    21:00 -10°C° 0 mm 6 mps 744 mmHg 81%
    22:00 -10°C° 0 mm 6 mps 744 mmHg 81%
    23:00 -10°C° 0 mm 6 mps 744 mmHg 82%

    Day after tomorrow, 25 January, Friday

    Time Temperature Precipitation Wind Pressure Humidity
    00:00 -11°C° 0.2 mm 6 mps 744 mmHg 84%
    01:00 -11°C° 0.2 mm 6 mps 744 mmHg 86%
    02:00 -11°C° 0.2 mm 6 mps 744 mmHg 87%
    03:00 -11°C° 0.2 mm 6 mps 744 mmHg 88%
    04:00 -11°C° 0.2 mm 6 mps 743 mmHg 88%
    05:00 -11°C° 0.2 mm 6 mps 743 mmHg 88%
    06:00 -11°C° 0.4 mm 6 mps 743 mmHg 90%
    07:00 -11°C° 0.4 mm 6 mps 743 mmHg 91%
    08:00 -11°C° 0.4 mm 6 mps 743 mmHg 92%
    09:00 -11°C° 0.6 mm 6 mps 743 mmHg 92%
    10:00 -11°C° 0.6 mm 5 mps 743 mmHg 92%
    11:00 -11°C° 0.6 mm 5 mps 743 mmHg 92%
    12:00 -10°C° 0.3 mm 5 mps 743 mmHg 92%
    13:00 -10°C° 0.3 mm 5 mps 743 mmHg 92%
    14:00 -10°C° 0.3 mm 5 mps 743 mmHg 91%
    15:00 -10°C° 0.3 mm 5 mps 743 mmHg 92%
    16:00 -10°C° 0.3 mm 5 mps 743 mmHg 92%
    17:00 -9°C° 0.3 mm 4 mps 743 mmHg 92%
    18:00 -9°C° 0.2 mm 4 mps 743 mmHg 93%
    19:00 -9°C° 0.2 mm 4 mps 743 mmHg 93%
    20:00 -8°C° 0.2 mm 3 mps 743 mmHg 94%
    21:00 -8°C° 0.2 mm 3 mps 743 mmHg 94%
    22:00 -8°C° 0.2 mm 3 mps 743 mmHg 94%
    23:00 -8°C° 0.2 mm 3 mps 743 mmHg 94%

    26 January, Saturday

    Time Temperature Precipitation Wind Pressure Humidity
    00:00 -7°C° 0.2 mm 2 mps 743 mmHg 95%
    01:00 -7°C° 0.2 mm 2 mps 743 mmHg 95%
    02:00 -7°C° 0.2 mm 2 mps 743 mmHg 96%
    03:00 -7°C° 0.1 mm 2 mps 743 mmHg 96%
    04:00 -7°C° 0.1 mm 2 mps 743 mmHg 96%
    05:00 -7°C° 0.1 mm 2 mps 742 mmHg 96%
    06:00 -7°C° 0.1 mm 2 mps 743 mmHg 96%
    07:00 -7°C° 0.1 mm 2 mps 743 mmHg 96%
    08:00 -7°C° 0.1 mm 2 mps 743 mmHg 96%
    09:00 -6°C° 0 mm 2 mps 743 mmHg 96%
    10:00 -6°C° 0 mm 2 mps 743 mmHg 95%
    11:00 -6°C° 0 mm 2 mps 743 mmHg 94%
    12:00 -6°C° 0 mm 2 mps 743 mmHg 93%
    13:00 -5°C° 0 mm 2 mps 742 mmHg 93%
    14:00 -5°C° 0 mm 2 mps 742 mmHg 92%
    15:00 -5°C° 0 mm 2 mps 742 mmHg 92%
    16:00 -5°C° 0 mm 2 mps 742 mmHg 93%
    17:00 -3°C° 0 mm 1 mps 742 mmHg 94%
    18:00 -4°C° 0 mm 1 mps 741 mmHg 94%
    19:00 -4°C° 0 mm 1 mps 741 mmHg 95%
    20:00 -4°C° 0 mm 1 mps 741 mmHg 95%
    21:00 -4°C° 0 mm 1 mps 741 mmHg 95%
    22:00 -4°C° 0 mm 1 mps 741 mmHg 95%
    23:00 -6°C° 0 mm 1 mps 741 mmHg 95%

    27 January, Sunday

    Time Temperature Precipitation Wind Pressure Humidity
    00:00 -4°C° 0 mm 1 mps 741 mmHg 95%
    01:00 -4°C° 0 mm 1 mps 740 mmHg 96%
    02:00 -4°C° 0 mm 1 mps 740 mmHg 96%
    03:00 -3°C° 0 mm 1 mps 740 mmHg 96%
    04:00 -5°C° 0 mm 2 mps 740 mmHg 96%
    05:00 -5°C° 0 mm 2 mps 739 mmHg 97%
    06:00 -5°C° 0 mm 2 mps 739 mmHg 96%
    07:00 -6°C° 0 mm 3 mps 739 mmHg 96%
    08:00 -6°C° 0 mm 3 mps 739 mmHg 96%
    09:00 -5°C° 0 mm 3 mps 739 mmHg 95%
    10:00 -5°C° 0 mm 4 mps 739 mmHg 95%
    11:00 -5°C° 0 mm 4 mps 739 mmHg 95%
    12:00 -4°C° 0 mm 4 mps 739 mmHg 94%
    13:00 -4°C° 0 mm 4 mps 739 mmHg 94%
    14:00 -3°C° 0 mm 4 mps 739 mmHg 94%
    15:00 -3°C° 0.1 mm 4 mps 739 mmHg 94%
    16:00 -3°C° 0.1 mm 4 mps 740 mmHg 94%
    17:00 -3°C° 0.1 mm 4 mps 740 mmHg 94%
    18:00 -3°C° 0 mm 4 mps 740 mmHg 94%
    19:00 -3°C° 0 mm 4 mps 740 mmHg 94%
    20:00 -3°C° 0 mm 4 mps 740 mmHg 94%
    21:00 -3°C° 0.1 mm 4 mps 741 mmHg 95%
    22:00 -3°C° 0.1 mm 4 mps 741 mmHg 95%
    23:00 -3°C° 0.1 mm 4 mps 741 mmHg 95%

    28 January, Monday

    Time Temperature Precipitation Wind Pressure Humidity
    00:00 -3°C° 0.1 mm 4 mps 741 mmHg 95%
    01:00 -2°C° 0.1 mm 3 mps 742 mmHg 95%
    02:00 -2°C° 0.1 mm 3 mps 742 mmHg 95%
    03:00 -2°C° 0 mm 3 mps 742 mmHg 95%
    04:00 -2°C° 0 mm 3 mps 742 mmHg 96%
    05:00 -4°C° 0 mm 3 mps 742 mmHg 96%
    06:00 -4°C° 0 mm 3 mps 743 mmHg 96%
    07:00 -4°C° 0 mm 4 mps 743 mmHg 96%
    08:00 -4°C° 0 mm 4 mps 743 mmHg 96%
    09:00 -4°C° 0 mm 4 mps 744 mmHg 95%
    10:00 -4°C° 0 mm 4 mps 744 mmHg 95%
    11:00 -4°C° 0 mm 4 mps 745 mmHg 95%
    12:00 -4°C° 0 mm 4 mps 745 mmHg 94%
    13:00 -4°C° 0 mm 4 mps 745 mmHg 94%
    14:00 -3°C° 0 mm 4 mps 746 mmHg 93%
    15:00 -3°C° 0 mm 4 mps 746 mmHg 93%
    16:00 -4°C° 0 mm 4 mps 746 mmHg 93%
    17:00 -4°C° 0 mm 4 mps 747 mmHg 93%
    18:00 -4°C° 0 mm 4 mps 747 mmHg 94%
    19:00 -4°C° 0 mm 4 mps 747 mmHg 94%
    20:00 -4°C° 0 mm 4 mps 748 mmHg 94%
    21:00 -4°C° 0 mm 4 mps 748 mmHg 94%
    22:00 -5°C° 0 mm 4 mps 748 mmHg 94%
    23:00 -5°C° 0 mm 4 mps 749 mmHg 94%
    Show more